Weather in Solontsovy

Russia / Khabarovsk Krai     47°09′08″N   136°05′37″E
temp.,
°C
wind,
m/s
gust,
m/s
humid.,
%
clouds,
%
prec.,
mm/h
press.,
hPa
HPBL,
m
26 february, fri
fri2601:00−22wnw11100100 0.1 102620
04:00−24sw1110098 0.1 102620
07:00−25ssw119938 0.0 102720
10:00−19ssw118852 0.0 1027238
13:00−14nw2379100 0.1 1027760
16:00−14nw3485100 0.2 1026848
19:00−19nw1298100 0.1 103021
22:00−22wnw1110091 0.1 103320
27 february, sat
sat2701:00−24ssw11982 0.0 103620
04:00−24sse11981 0.0 103620
07:00−24sse12982 0.0 103720
10:00−17sse23891 0.0 1036190
13:00−9s23731 0.0 1033481
16:00−8s247350 0.0 1029505
19:00−11sse2289100 0.0 102737
22:00−10s3788100 0.0 1025179
28 february, sun
sun2801:00−8s51677100 0.0 1022595
04:00−8ssw51684100 0.0 1020643
07:00−7ssw51689100 0.0 1019668
10:00−5ssw51293100 0.3 1018756
13:00−2wsw51094100 1.8 1018866
16:00−5nw4895100 3.9 1018481
19:00−7wnw3993100 1.3 1021794
22:00−12wnw3891100 1.4 1024579
1 march, mon
mon101:00−17w2793100 0.0 1026264
04:00−21wsw129667 0.0 102921
07:00−24wsw11970 0.0 103120
10:00−18wsw25801 0.0 1032545
13:00−15wnw47674 0.0 10321086
16:00−15wnw47672 0.0 10321203
19:00−21wnw22890 0.0 103321
22:00−24s11900 0.0 103420
2 march, tue
tue201:00−24sse12910 0.0 103420
04:00−24s229223 0.0 103426
07:00−25sse129686 0.0 103420
10:00−17nw138343 0.0 1033405
13:00−15n34680 0.0 1030917
16:00−15n35720 0.0 1029975
19:00−21nnw22920 0.0 103020
22:00−24n11950 0.0 103220